{"data":{"norad_id":66045,"epoch":"2026-09-20T15:34:25.247712Z","epoch_age_seconds":127471,"freshness":"FRESH","line1":"1 66045U 25233N   26263.64890333  .00000037  00000+0  39351-4 0  9995","line2":"2 66045  89.0061  33.5524 0001798  94.5821 265.5536 13.51028577 46071","mean_motion":13.51028577,"eccentricity":0.0001798,"inclination_deg":89.0061,"raan_deg":33.5524,"arg_perigee_deg":94.5821,"mean_anomaly_deg":265.5536,"bstar":3.9351e-5,"rev_number":4607,"period_min":106.58545825859,"perigee_km":1067.137674933,"apogee_km":1069.8154771749,"semimajor_km":7446.613576054,"source":"CELESTRAK","updated_at":"2026-09-21T09:00:15.734702Z"}}